Location: Hains Lake
(37.8540°N, 99.8578°W)
Time: 10:21:12
(UTC+00:00)

Tiros 1 despin weight - Pass Details

Date: 28 April 2021
Orbit: 593 x 642 km, 48.2° (Epoch: 07 May)

Event Time Altitude Azimuth Distance (km) Brightness Sun altitude
Rises 15:45:03 0° 292° (WNW) 2,879 ? 45.4°
Reaches altitude 10° 15:47:44 10° 278° (W) 1,961 ? 45.9°
Maximum altitude 15:51:15 23° 227° (SW) 1,303 ? 46.5°
Drops below altitude 10° 15:54:44 10° 175° (S) 1,930 ? 47.2°
Sets 15:57:22 0° 160° (SSE) 2,821 ? 47.7°
